| time (UTC) | temp F | wind direction | speed MPH | gust MPH | rain 1hr in | rain 24hr in | rain mn in | humidity % | barometer mb |
| 20260507185515 | 63 | 23 | 8.0 | 13.0 | 0.00 | 0.00 | 0.00 | 71 | 1018.2 |
| 20260507185036 | 63 | 68 | 6.0 | 12.0 | 0.00 | 0.00 | 0.00 | 71 | 1018.2 |
| 20260507184515 | 63 | 90 | 5.0 | 10.0 | 0.00 | 0.00 | 0.00 | 71 | 1018.6 |
| 20260507184035 | 63 | 45 | 4.0 | 11.0 | 0.00 | 0.00 | 0.00 | 72 | 1018.5 |
| 20260507183515 | 63 | 45 | 6.0 | 14.0 | 0.00 | 0.00 | 0.00 | 73 | 1018.6 |
| 20260507183016 | 63 | 45 | 8.0 | 14.0 | 0.00 | 0.00 | 0.00 | 72 | 1018.3 |
| 20260507182556 | 63 | 68 | 7.0 | 15.0 | 0.00 | 0.00 | 0.00 | 72 | 1018.3 |
| 20260507182015 | 63 | 45 | 7.0 | 13.0 | 0.00 | 0.00 | 0.00 | 72 | 1018.7 |
| 20260507181515 | 63 | 45 | 6.0 | 12.0 | 0.00 | 0.00 | 0.00 | 72 | 1018.4 |
| 20260507181021 | 63 | 23 | 9.0 | 15.0 | 0.00 | 0.00 | 0.00 | 71 | 1018.5 |
| 20260507180556 | 64 | 45 | 6.0 | 12.0 | 0.00 | 0.00 | 0.00 | 72 | 1018.8 |
| 20260507180036 | 64 | 45 | 6.0 | 11.0 | 0.00 | 0.00 | 0.00 | 71 | 1019.3 |
| 20260507175516 | 64 | 23 | 7.0 | 13.0 | 0.00 | 0.00 | 0.00 | 70 | 1019.5 |
| 20260507175015 | 64 | 23 | 9.0 | 17.0 | 0.00 | 0.00 | 0.00 | 71 | 1018.8 |
| 20260507174556 | 65 | 23 | 9.0 | 16.0 | 0.00 | 0.00 | 0.00 | 70 | 1018.5 |
| 20260507174015 | 65 | 45 | 6.0 | 11.0 | 0.00 | 0.00 | 0.00 | 73 | 1018.7 |
| 20260507173536 | 63 | 23 | 7.0 | 14.0 | 0.00 | 0.00 | 0.00 | 77 | 1018.7 |
| 20260507173016 | 62 | 45 | 7.0 | 12.0 | 0.00 | 0.00 | 0.00 | 80 | 1018.9 |
| 20260507172516 | 61 | 45 | 5.0 | 11.0 | 0.00 | 0.00 | 0.00 | 84 | 1019.1 |
| 20260507172015 | 60 | 45 | 4.0 | 8.0 | 0.00 | 0.00 | 0.00 | 83 | 1018.9 |
| 20260507171515 | 60 | 23 | 7.0 | 12.0 | 0.00 | 0.00 | 0.00 | 83 | 1018.9 |
| 20260507171016 | 60 | 68 | 4.0 | 11.0 | 0.00 | 0.00 | 0.00 | 84 | 1018.4 |
| 20260507170535 | 59 | 68 | 6.0 | 11.0 | 0.00 | 0.00 | 0.00 | 85 | 1017.9 |
| 20260507170015 | 59 | 68 | 5.0 | 13.0 | 0.00 | 0.00 | 0.00 | 85 | 1018.2 |
| 20260507165535 | 59 | 45 | 6.0 | 12.0 | 0.00 | 0.00 | 0.00 | 85 | 1018.4 |
| 20260507165015 | 59 | 23 | 8.0 | 15.0 | 0.00 | 0.00 | 0.00 | 85 | 1018.9 |
| 20260507164515 | 59 | 23 | 6.0 | 11.0 | 0.00 | 0.00 | 0.00 | 84 | 1019.0 |
| 20260507164015 | 59 | 0 | 4.0 | 9.0 | 0.00 | 0.00 | 0.00 | 84 | 1020.1 |
| 20260507163535 | 59 | 45 | 5.0 | 9.0 | 0.00 | 0.00 | 0.00 | 83 | 1019.3 |
| 20260507163015 | 59 | 45 | 4.0 | 8.0 | 0.00 | 0.00 | 0.00 | 82 | 1019.6 |
| 20260507162515 | 59 | 0 | 3.0 | 9.0 | 0.00 | 0.00 | 0.00 | 83 | 1020.6 |
| 20260507162015 | 59 | 338 | 2.0 | 9.0 | 0.00 | 0.00 | 0.00 | 83 | 1021.4 |
| 20260507161515 | 59 | 23 | 3.0 | 7.0 | 0.00 | 0.00 | 0.00 | 82 | 1021.3 |
| 20260507161015 | 59 | 68 | 4.0 | 9.0 | 0.00 | 0.00 | 0.00 | 82 | 1020.2 |
| 20260507160515 | 59 | 45 | 7.0 | 13.0 | 0.00 | 0.00 | 0.00 | 82 | 1019.5 |
| 20260507160015 | 59 | 23 | 5.0 | 10.0 | 0.00 | 0.00 | 0.00 | 82 | 1020.4 |
| 20260507155515 | 59 | 23 | 5.0 | 10.0 | 0.00 | 0.00 | 0.00 | 82 | 1020.0 |
| 20260507155015 | 58 | 23 | 3.0 | 9.0 | 0.00 | 0.00 | 0.00 | 82 | 1020.2 |
| 20260507154515 | 58 | 23 | 5.0 | 13.0 | 0.00 | 0.00 | 0.00 | 82 | 1020.1 |
| 20260507154015 | 58 | 23 | 6.0 | 12.0 | 0.00 | 0.00 | 0.00 | 82 | 1019.7 |
| 20260507153515 | 58 | 23 | 5.0 | 11.0 | 0.00 | 0.00 | 0.00 | 82 | 1019.8 |
| 20260507153015 | 58 | 23 | 8.0 | 14.0 | 0.00 | 0.00 | 0.00 | 82 | 1019.4 |
| 20260507152515 | 58 | 23 | 7.0 | 15.0 | 0.00 | 0.00 | 0.00 | 83 | 1019.9 |
| 20260507152015 | 58 | 23 | 3.0 | 9.0 | 0.00 | 0.00 | 0.00 | 83 | 1021.0 |
| 20260507151515 | 58 | 23 | 5.0 | 15.0 | 0.00 | 0.00 | 0.00 | 83 | 1020.3 |
| 20260507151015 | 59 | 23 | 6.0 | 12.0 | 0.00 | 0.00 | 0.00 | 82 | 1020.0 |
| 20260507150535 | 58 | 0 | 5.0 | 11.0 | 0.00 | 0.00 | 0.00 | 82 | 1020.1 |
| 20260507150015 | 58 | 45 | 5.0 | 12.0 | 0.00 | 0.00 | 0.00 | 83 | 1019.6 |
| 20260507145535 | 58 | 23 | 5.0 | 12.0 | 0.00 | 0.00 | 0.00 | 83 | 1019.8 |
| 20260507145015 | 58 | 23 | 8.0 | 12.0 | 0.00 | 0.00 | 0.00 | 83 | 1019.9 |
| 20260507144515 | 58 | 23 | 6.0 | 14.0 | 0.00 | 0.00 | 0.00 | 84 | 1020.0 |
| 20260507144015 | 58 | 23 | 8.0 | 16.0 | 0.00 | 0.00 | 0.00 | 84 | 1019.7 |
| 20260507143535 | 58 | 23 | 10.0 | 18.0 | 0.00 | 0.00 | 0.00 | 85 | 1019.1 |
| 20260507143035 | 58 | 23 | 7.0 | 16.0 | 0.00 | 0.00 | 0.00 | 86 | 1019.5 |
| 20260507142535 | 58 | 23 | 7.0 | 13.0 | 0.00 | 0.00 | 0.00 | 86 | 1019.5 |
| 20260507142015 | 58 | 23 | 7.0 | 16.0 | 0.00 | 0.00 | 0.00 | 86 | 1019.3 |
| 20260507141535 | 58 | 23 | 9.0 | 19.0 | 0.00 | 0.00 | 0.00 | 88 | 1019.4 |
| 20260507141015 | 58 | 23 | 9.0 | 16.0 | 0.00 | 0.00 | 0.00 | 88 | 1019.6 |
| 20260507140536 | 58 | 23 | 7.0 | 13.0 | 0.00 | 0.00 | 0.00 | 88 | 1019.4 |
| 20260507140015 | 58 | 23 | 9.0 | 16.0 | 0.00 | 0.00 | 0.00 | 88 | 1019.4 |
| 20260507135515 | 58 | 23 | 7.0 | 13.0 | 0.00 | 0.00 | 0.00 | 88 | 1019.3 |
| 20260507135015 | 58 | 23 | 9.0 | 18.0 | 0.00 | 0.00 | 0.00 | 89 | 1019.2 |
| 20260507134515 | 58 | 0 | 8.0 | 15.0 | 0.00 | 0.00 | 0.00 | 89 | 1019.0 |
| 20260507134015 | 58 | 23 | 8.0 | 14.0 | 0.00 | 0.00 | 0.00 | 89 | 1018.9 |
| 20260507133515 | 58 | 23 | 9.0 | 14.0 | 0.00 | 0.00 | 0.00 | 89 | 1018.9 |
| 20260507133015 | 57 | 23 | 8.0 | 16.0 | 0.00 | 0.00 | 0.00 | 89 | 1018.8 |
| 20260507132535 | 57 | 23 | 8.0 | 15.0 | 0.00 | 0.00 | 0.00 | 89 | 1019.0 |
| 20260507132015 | 57 | 23 | 8.0 | 16.0 | 0.00 | 0.00 | 0.00 | 89 | 1019.2 |
| 20260507131517 | 57 | 23 | 6.0 | 12.0 | 0.00 | 0.00 | 0.00 | 89 | 1019.1 |
| 20260507131037 | 57 | 23 | 5.0 | 10.0 | 0.00 | 0.00 | 0.00 | 89 | 1019.1 |
| 20260507130517 | 57 | 23 | 8.0 | 13.0 | 0.00 | 0.00 | 0.00 | 89 | 1019.1 |
| 20260507130017 | 57 | 23 | 7.0 | 13.0 | 0.00 | 0.00 | 0.00 | 89 | 1019.1 |
| 20260507125517 | 57 | 23 | 8.0 | 14.0 | 0.00 | 0.00 | 0.00 | 89 | 1018.9 |
| 20260507125017 | 57 | 23 | 6.0 | 11.0 | 0.00 | 0.00 | 0.00 | 89 | 1018.9 |
| 20260507124517 | 57 | 23 | 8.0 | 15.0 | 0.00 | 0.00 | 0.00 | 89 | 1019.0 |
| 20260507124017 | 57 | 0 | 5.0 | 13.0 | 0.00 | 0.00 | 0.00 | 89 | 1019.1 |
| 20260507123517 | 57 | 23 | 5.0 | 11.0 | 0.00 | 0.00 | 0.00 | 89 | 1019.1 |
| 20260507123017 | 57 | 23 | 9.0 | 15.0 | 0.00 | 0.00 | 0.00 | 89 | 1019.1 |
| 20260507122557 | 57 | 23 | 7.0 | 16.0 | 0.00 | 0.00 | 0.00 | 89 | 1019.0 |
| 20260507122037 | 57 | 23 | 7.0 | 14.0 | 0.00 | 0.00 | 0.00 | 89 | 1018.9 |
| 20260507121517 | 57 | 0 | 10.0 | 16.0 | 0.00 | 0.00 | 0.00 | 89 | 1018.4 |
| 20260507121017 | 57 | 0 | 8.0 | 17.0 | 0.00 | 0.00 | 0.00 | 89 | 1018.2 |
| 20260507120537 | 58 | 23 | 8.0 | 17.0 | 0.00 | 0.00 | 0.00 | 89 | 1017.9 |
| 20260507120017 | 58 | 23 | 6.0 | 14.0 | 0.00 | 0.00 | 0.00 | 89 | 1018.1 |
| 20260507115517 | 58 | 23 | 8.0 | 16.0 | 0.00 | 0.00 | 0.00 | 89 | 1017.9 |
| 20260507115017 | 58 | 23 | 8.0 | 16.0 | 0.00 | 0.00 | 0.00 | 89 | 1017.8 |
| 20260507114516 | 58 | 23 | 9.0 | 16.0 | 0.00 | 0.00 | 0.00 | 89 | 1018.0 |
| 20260507114016 | 58 | 23 | 7.0 | 15.0 | 0.00 | 0.00 | 0.00 | 89 | 1018.2 |
| 20260507113517 | 58 | 23 | 5.0 | 13.0 | 0.00 | 0.00 | 0.00 | 89 | 1018.2 |
| 20260507113017 | 58 | 0 | 6.0 | 11.0 | 0.00 | 0.00 | 0.00 | 89 | 1018.2 |
| 20260507112537 | 58 | 0 | 5.0 | 11.0 | 0.00 | 0.00 | 0.00 | 89 | 1018.3 |
| 20260507112016 | 58 | 23 | 7.0 | 16.0 | 0.00 | 0.00 | 0.00 | 89 | 1018.2 |
| 20260507111516 | 58 | 23 | 7.0 | 14.0 | 0.00 | 0.00 | 0.00 | 89 | 1018.0 |
| 20260507111017 | 58 | 23 | 8.0 | 15.0 | 0.00 | 0.00 | 0.00 | 89 | 1017.9 |
| 20260507110517 | 58 | 23 | 9.0 | 19.0 | 0.00 | 0.00 | 0.00 | 89 | 1018.0 |
| 20260507110017 | 58 | 23 | 9.0 | 15.0 | 0.00 | 0.00 | 0.00 | 89 | 1017.9 |
| 20260507105517 | 58 | 23 | 9.0 | 16.0 | 0.00 | 0.00 | 0.00 | 89 | 1017.9 |
| 20260507105016 | 58 | 23 | 9.0 | 18.0 | 0.00 | 0.00 | 0.00 | 89 | 1018.1 |
| 20260507104516 | 58 | 23 | 6.0 | 16.0 | 0.00 | 0.00 | 0.00 | 89 | 1018.0 |
| 20260507104057 | 58 | 23 | 6.0 | 13.0 | 0.00 | 0.00 | 0.00 | 89 | 1018.1 |
| 20260507103516 | 58 | 23 | 10.0 | 16.0 | 0.00 | 0.00 | 0.00 | 89 | 1017.3 |
| 20260507103037 | 58 | 23 | 9.0 | 13.0 | 0.00 | 0.00 | 0.00 | 89 | 1017.3 |
| 20260507102516 | 58 | 23 | 9.0 | 19.0 | 0.00 | 0.00 | 0.00 | 89 | 1017.4 |
| 20260507102016 | 58 | 23 | 9.0 | 19.0 | 0.00 | 0.00 | 0.00 | 88 | 1017.8 |
| 20260507101517 | 58 | 23 | 7.0 | 14.0 | 0.00 | 0.00 | 0.00 | 89 | 1018.0 |
| 20260507101016 | 58 | 23 | 5.0 | 11.0 | 0.00 | 0.00 | 0.00 | 89 | 1017.6 |
| 20260507100516 | 58 | 23 | 7.0 | 14.0 | 0.00 | 0.00 | 0.00 | 88 | 1017.2 |
| 20260507100017 | 58 | 23 | 7.0 | 13.0 | 0.00 | 0.00 | 0.00 | 88 | 1017.6 |
| 20260507095517 | 58 | 23 | 5.0 | 11.0 | 0.00 | 0.00 | 0.00 | 88 | 1017.5 |
| 20260507095017 | 58 | 23 | 5.0 | 11.0 | 0.00 | 0.00 | 0.00 | 88 | 1017.8 |
| 20260507094516 | 58 | 23 | 5.0 | 9.0 | 0.00 | 0.00 | 0.00 | 88 | 1017.7 |
| 20260507094016 | 58 | 23 | 3.0 | 9.0 | 0.00 | 0.00 | 0.00 | 88 | 1017.3 |
| 20260507093517 | 58 | 45 | 5.0 | 11.0 | 0.00 | 0.00 | 0.00 | 88 | 1017.2 |
| 20260507093016 | 58 | 23 | 6.0 | 13.0 | 0.00 | 0.00 | 0.00 | 88 | 1017.1 |
| 20260507092517 | 58 | 45 | 5.0 | 12.0 | 0.00 | 0.00 | 0.00 | 88 | 1017.3 |
| 20260507092016 | 58 | 23 | 4.0 | 11.0 | 0.00 | 0.00 | 0.00 | 88 | 1017.3 |
| 20260507091517 | 58 | 23 | 5.0 | 13.0 | 0.00 | 0.00 | 0.00 | 88 | 1017.3 |
| 20260507091016 | 58 | 23 | 6.0 | 12.0 | 0.00 | 0.00 | 0.00 | 88 | 1016.9 |
| 20260507090516 | 58 | 23 | 4.0 | 8.0 | 0.00 | 0.00 | 0.00 | 88 | 1016.9 |
| 20260507090016 | 58 | 23 | 5.0 | 12.0 | 0.00 | 0.00 | 0.00 | 88 | 1016.6 |
| 20260507085516 | 58 | 45 | 4.0 | 10.0 | 0.00 | 0.00 | 0.00 | 88 | 1016.6 |
| 20260507085016 | 58 | 23 | 5.0 | 10.0 | 0.00 | 0.00 | 0.00 | 88 | 1016.3 |
| 20260507084516 | 58 | 45 | 3.0 | 6.0 | 0.00 | 0.00 | 0.00 | 88 | 1016.7 |
| 20260507084016 | 58 | 23 | 4.0 | 9.0 | 0.00 | 0.00 | 0.00 | 88 | 1016.7 |
| 20260507083536 | 58 | 23 | 6.0 | 11.0 | 0.00 | 0.00 | 0.00 | 88 | 1016.4 |
| 20260507083016 | 58 | 23 | 6.0 | 14.0 | 0.00 | 0.00 | 0.00 | 88 | 1016.4 |
| 20260507082516 | 58 | 45 | 3.0 | 10.0 | 0.00 | 0.00 | 0.00 | 88 | 1016.6 |
| 20260507082016 | 58 | 23 | 5.0 | 10.0 | 0.00 | 0.00 | 0.00 | 86 | 1016.5 |
| 20260507081517 | 58 | 45 | 5.0 | 11.0 | 0.00 | 0.00 | 0.00 | 86 | 1016.3 |
| 20260507081016 | 58 | 23 | 8.0 | 15.0 | 0.00 | 0.00 | 0.00 | 86 | 1016.3 |
| 20260507080516 | 58 | 45 | 4.0 | 12.0 | 0.00 | 0.00 | 0.00 | 86 | 1016.3 |
| 20260507080016 | 58 | 45 | 7.0 | 13.0 | 0.00 | 0.00 | 0.00 | 86 | 1016.0 |
| 20260507075517 | 59 | 45 | 7.0 | 14.0 | 0.00 | 0.00 | 0.00 | 86 | 1015.9 |
| 20260507075016 | 59 | 45 | 7.0 | 14.0 | 0.00 | 0.00 | 0.00 | 86 | 1015.8 |
| 20260507074516 | 59 | 45 | 5.0 | 11.0 | 0.00 | 0.00 | 0.00 | 86 | 1016.5 |
| 20260507074016 | 59 | 45 | 7.0 | 13.0 | 0.00 | 0.00 | 0.00 | 86 | 1016.3 |
| 20260507073516 | 59 | 23 | 7.0 | 14.0 | 0.00 | 0.00 | 0.00 | 85 | 1016.1 |
| 20260507073036 | 59 | 23 | 8.0 | 15.0 | 0.00 | 0.00 | 0.00 | 85 | 1015.7 |
| 20260507072516 | 59 | 45 | 4.0 | 10.0 | 0.00 | 0.00 | 0.00 | 85 | 1015.9 |
| 20260507072016 | 59 | 45 | 6.0 | 11.0 | 0.00 | 0.00 | 0.00 | 85 | 1015.9 |
| 20260507071516 | 59 | 45 | 5.0 | 11.0 | 0.00 | 0.00 | 0.00 | 85 | 1016.3 |
| 20260507071016 | 59 | 23 | 4.0 | 8.0 | 0.00 | 0.00 | 0.00 | 85 | 1016.4 |
| 20260507070636 | 59 | 45 | 5.0 | 11.0 | 0.00 | 0.00 | 0.00 | 85 | 1016.2 |
| 20260507070016 | 59 | 45 | 5.0 | 12.0 | 0.00 | 0.00 | 0.00 | 84 | 1016.3 |
| 20260507065516 | 59 | 68 | 4.0 | 12.0 | 0.00 | 0.00 | 0.00 | 84 | 1016.4 |
| 20260507065016 | 59 | 45 | 6.0 | 12.0 | 0.00 | 0.00 | 0.00 | 84 | 1016.1 |
| 20260507064516 | 60 | 45 | 7.0 | 14.0 | 0.00 | 0.00 | 0.00 | 84 | 1015.8 |
| 20260507064016 | 60 | 45 | 6.0 | 14.0 | 0.00 | 0.00 | 0.00 | 84 | 1016.0 |
| 20260507063516 | 60 | 45 | 5.0 | 11.0 | 0.00 | 0.00 | 0.00 | 83 | 1016.3 |
| 20260507063016 | 60 | 45 | 6.0 | 14.0 | 0.00 | 0.00 | 0.00 | 83 | 1016.4 |
| 20260507062516 | 60 | 45 | 6.0 | 12.0 | 0.00 | 0.00 | 0.00 | 83 | 1016.3 |
| 20260507062016 | 60 | 45 | 6.0 | 15.0 | 0.00 | 0.00 | 0.00 | 83 | 1016.1 |
| 20260507061516 | 60 | 45 | 5.0 | 14.0 | 0.00 | 0.00 | 0.00 | 82 | 1016.3 |
| 20260507061016 | 60 | 45 | 4.0 | 10.0 | 0.00 | 0.00 | 0.00 | 82 | 1016.8 |
| 20260507060516 | 60 | 45 | 4.0 | 9.0 | 0.00 | 0.00 | 0.00 | 82 | 1016.8 |
| 20260507060036 | 60 | 23 | 5.0 | 13.0 | 0.00 | 0.00 | 0.00 | 82 | 1016.6 |
| 20260507055516 | 60 | 23 | 5.0 | 12.0 | 0.00 | 0.00 | 0.00 | 82 | 1016.3 |
| 20260507055016 | 60 | 45 | 5.0 | 12.0 | 0.00 | 0.00 | 0.00 | 82 | 1016.1 |
| 20260507054516 | 60 | 23 | 4.0 | 11.0 | 0.00 | 0.00 | 0.00 | 82 | 1016.1 |
| 20260507054016 | 60 | 45 | 5.0 | 12.0 | 0.00 | 0.00 | 0.00 | 81 | 1016.0 |
| 20260507053516 | 60 | 45 | 7.0 | 11.0 | 0.00 | 0.00 | 0.00 | 81 | 1015.9 |
| 20260507053016 | 61 | 45 | 7.0 | 12.0 | 0.00 | 0.00 | 0.00 | 81 | 1016.1 |
| 20260507052516 | 61 | 23 | 7.0 | 14.0 | 0.00 | 0.00 | 0.00 | 81 | 1016.0 |
| 20260507052016 | 61 | 23 | 8.0 | 14.0 | 0.00 | 0.00 | 0.00 | 82 | 1016.1 |
| 20260507051536 | 61 | 68 | 6.0 | 14.0 | 0.00 | 0.00 | 0.00 | 82 | 1016.1 |
| 20260507051016 | 61 | 45 | 8.0 | 15.0 | 0.00 | 0.00 | 0.00 | 82 | 1016.0 |
| 20260507050516 | 61 | 23 | 9.0 | 15.0 | 0.00 | 0.00 | 0.00 | 82 | 1016.2 |
| 20260507050016 | 61 | 23 | 7.0 | 12.0 | 0.00 | 0.00 | 0.00 | 82 | 1016.3 |
| 20260507045517 | 61 | 23 | 8.0 | 13.0 | 0.00 | 0.00 | 0.00 | 82 | 1016.1 |
| 20260507045017 | 61 | 45 | 6.0 | 11.0 | 0.00 | 0.00 | 0.00 | 82 | 1016.1 |
| 20260507044516 | 61 | 45 | 5.0 | 11.0 | 0.00 | 0.00 | 0.00 | 82 | 1016.3 |
| 20260507044017 | 61 | 45 | 7.0 | 15.0 | 0.00 | 0.00 | 0.00 | 82 | 1016.1 |
| 20260507043517 | 61 | 23 | 6.0 | 12.0 | 0.00 | 0.00 | 0.00 | 81 | 1016.3 |
| 20260507043037 | 61 | 23 | 9.0 | 16.0 | 0.00 | 0.00 | 0.00 | 81 | 1016.1 |
| 20260507042517 | 61 | 23 | 8.0 | 15.0 | 0.00 | 0.00 | 0.00 | 81 | 1016.0 |
| 20260507042017 | 61 | 23 | 8.0 | 13.0 | 0.00 | 0.00 | 0.00 | 81 | 1016.1 |
| 20260507041516 | 61 | 23 | 6.0 | 12.0 | 0.00 | 0.00 | 0.00 | 81 | 1016.2 |
| 20260507041017 | 61 | 23 | 6.0 | 13.0 | 0.00 | 0.00 | 0.00 | 81 | 1016.1 |
| 20260507040557 | 61 | 23 | 5.0 | 10.0 | 0.00 | 0.00 | 0.00 | 81 | 1016.1 |
| 20260507040016 | 61 | 23 | 5.0 | 10.0 | 0.00 | 0.00 | 0.00 | 81 | 1016.2 |
| 20260507035517 | 61 | 23 | 7.0 | 15.0 | 0.00 | 0.00 | 0.00 | 81 | 1016.3 |
| 20260507035157 | 61 | 45 | 6.0 | 11.0 | 0.00 | 0.00 | 0.00 | 82 | 1016.1 |
| 20260507034537 | 61 | 45 | 6.0 | 12.0 | 0.00 | 0.00 | 0.00 | 82 | 1016.1 |
| 20260507034017 | 61 | 23 | 6.0 | 13.0 | 0.00 | 0.00 | 0.00 | 82 | 1015.8 |
| 20260507033516 | 61 | 23 | 6.0 | 12.0 | 0.00 | 0.00 | 0.00 | 83 | 1016.0 |
| 20260507033017 | 61 | 23 | 6.0 | 13.0 | 0.00 | 0.00 | 0.00 | 83 | 1015.8 |
| 20260507032516 | 61 | 23 | 8.0 | 12.0 | 0.00 | 0.00 | 0.00 | 83 | 1015.9 |
| 20260507032016 | 61 | 23 | 5.0 | 12.0 | 0.00 | 0.00 | 0.00 | 83 | 1015.9 |
| 20260507031557 | 61 | 23 | 7.0 | 11.0 | 0.00 | 0.00 | 0.00 | 84 | 1015.9 |
| 20260507031016 | 61 | 0 | 5.0 | 12.0 | 0.00 | 0.00 | 0.00 | 84 | 1015.5 |
| 20260507030516 | 61 | 23 | 5.0 | 13.0 | 0.00 | 0.00 | 0.00 | 84 | 1015.5 |
| 20260507030016 | 61 | 23 | 5.0 | 10.0 | 0.00 | 0.00 | 0.00 | 83 | 1015.4 |
| 20260507025516 | 61 | 23 | 5.0 | 10.0 | 0.00 | 0.00 | 0.00 | 83 | 1015.7 |
| 20260507025016 | 61 | 23 | 4.0 | 10.0 | 0.00 | 0.00 | 0.00 | 83 | 1015.9 |
| 20260507024516 | 61 | 23 | 3.0 | 11.0 | 0.00 | 0.00 | 0.00 | 83 | 1015.9 |
| 20260507024016 | 61 | 0 | 4.0 | 10.0 | 0.00 | 0.00 | 0.00 | 83 | 1015.5 |
| 20260507023517 | 61 | 23 | 4.0 | 11.0 | 0.00 | 0.00 | 0.00 | 83 | 1015.4 |
| 20260507023016 | 61 | 23 | 6.0 | 12.0 | 0.00 | 0.00 | 0.00 | 83 | 1015.3 |
| 20260507022516 | 61 | 23 | 6.0 | 14.0 | 0.00 | 0.00 | 0.00 | 83 | 1015.2 |
| 20260507022036 | 61 | 0 | 4.0 | 11.0 | 0.00 | 0.00 | 0.00 | 83 | 1015.2 |
| 20260507021517 | 61 | 0 | 3.0 | 10.0 | 0.00 | 0.00 | 0.00 | 83 | 1015.3 |
| 20260507021017 | 61 | 23 | 3.0 | 5.0 | 0.00 | 0.00 | 0.00 | 83 | 1015.6 |
| 20260507020516 | 61 | 23 | 3.0 | 10.0 | 0.00 | 0.00 | 0.00 | 83 | 1015.3 |
| 20260507020016 | 61 | 0 | 4.0 | 9.0 | 0.00 | 0.00 | 0.00 | 83 | 1015.1 |
| 20260507015516 | 61 | 0 | 3.0 | 9.0 | 0.00 | 0.00 | 0.00 | 83 | 1015.2 |
| 20260507015016 | 62 | 23 | 3.0 | 10.0 | 0.00 | 0.00 | 0.00 | 83 | 1014.9 |
| 20260507014557 | 61 | 23 | 3.0 | 10.0 | 0.00 | 0.00 | 0.00 | 83 | 1014.8 |
| 20260507014036 | 61 | 0 | 4.0 | 9.0 | 0.00 | 0.00 | 0.00 | 83 | 1015.0 |
| 20260507013517 | 61 | 0 | 3.0 | 9.0 | 0.00 | 0.00 | 0.00 | 83 | 1014.5 |
| 20260507013016 | 61 | 23 | 3.0 | 10.0 | 0.00 | 0.00 | 0.00 | 82 | 1014.3 |
| 20260507012516 | 62 | 0 | 4.0 | 9.0 | 0.00 | 0.00 | 0.00 | 82 | 1014.2 |
| 20260507012017 | 62 | 0 | 3.0 | 9.0 | 0.00 | 0.00 | 0.00 | 83 | 1014.0 |
| 20260507011516 | 62 | 338 | 3.0 | 7.0 | 0.00 | 0.00 | 0.00 | 82 | 1014.2 |
| 20260507011016 | 62 | 0 | 2.0 | 7.0 | 0.00 | 0.00 | 0.00 | 82 | 1014.3 |
| 20260507010537 | 62 | 0 | 3.0 | 8.0 | 0.00 | 0.00 | 0.00 | 82 | 1014.1 |
| 20260507010016 | 62 | 338 | 2.0 | 7.0 | 0.00 | 0.00 | 0.00 | 82 | 1014.1 |
| 20260507005516 | 62 | 0 | 4.0 | 10.0 | 0.00 | 0.00 | 0.00 | 82 | 1014.0 |
| 20260507005016 | 62 | 0 | 3.0 | 10.0 | 0.00 | 0.00 | 0.00 | 81 | 1013.8 |
| 20260507004536 | 62 | 23 | 3.0 | 8.0 | 0.00 | 0.00 | 0.00 | 81 | 1013.6 |
| 20260507004016 | 62 | 23 | 4.0 | 8.0 | 0.00 | 0.00 | 0.00 | 81 | 1013.9 |
| 20260507003516 | 62 | 23 | 5.0 | 10.0 | 0.00 | 0.00 | 0.00 | 81 | 1013.6 |
| 20260507003016 | 62 | 23 | 5.0 | 11.0 | 0.00 | 0.00 | 0.00 | 81 | 1013.7 |
| 20260507002516 | 62 | 338 | 3.0 | 8.0 | 0.00 | 0.00 | 0.00 | 82 | 1013.5 |
| 20260507002016 | 62 | 338 | 3.0 | 8.0 | 0.00 | 0.00 | 0.00 | 82 | 1013.5 |
| 20260507001516 | 62 | 338 | 4.0 | 12.0 | 0.00 | 0.00 | 0.00 | 82 | 1013.5 |
| 20260507001016 | 62 | 338 | 3.0 | 10.0 | 0.00 | 0.00 | 0.00 | 82 | 1013.7 |
| 20260507000516 | 62 | 338 | 4.0 | 10.0 | 0.00 | 0.00 | 0.00 | 81 | 1013.7 |
| 20260507000036 | 62 | 338 | 4.0 | 10.0 | 0.00 | 0.00 | 0.00 | 81 | 1013.3 |
| 20260506235516 | 62 | 23 | 5.0 | 10.0 | 0.00 | 0.00 | 0.00 | 81 | 1013.5 |
| 20260506235016 | 62 | 45 | 4.0 | 10.0 | 0.00 | 0.00 | 0.00 | 81 | 1013.6 |
| 20260506234516 | 62 | 23 | 6.0 | 12.0 | 0.00 | 0.00 | 0.00 | 81 | 1013.4 |
| 20260506234016 | 62 | 0 | 4.0 | 10.0 | 0.00 | 0.00 | 0.00 | 81 | 1013.3 |
| 20260506233517 | 62 | 23 | 4.0 | 10.0 | 0.00 | 0.00 | 0.00 | 81 | 1013.3 |
| 20260506233016 | 62 | 23 | 6.0 | 12.0 | 0.00 | 0.00 | 0.00 | 80 | 1013.3 |
| 20260506232536 | 62 | 23 | 5.0 | 11.0 | 0.00 | 0.00 | 0.00 | 81 | 1013.4 |
| 20260506232016 | 62 | 23 | 6.0 | 13.0 | 0.00 | 0.00 | 0.00 | 81 | 1013.4 |
| 20260506231516 | 62 | 0 | 6.0 | 12.0 | 0.00 | 0.00 | 0.00 | 81 | 1013.4 |
| 20260506231016 | 62 | 23 | 4.0 | 11.0 | 0.00 | 0.00 | 0.00 | 81 | 1013.5 |
| 20260506230516 | 62 | 23 | 7.0 | 11.0 | 0.00 | 0.00 | 0.00 | 81 | 1013.3 |
| 20260506230016 | 62 | 23 | 5.0 | 10.0 | 0.00 | 0.00 | 0.00 | 81 | 1013.4 |
| 20260506225516 | 62 | 23 | 6.0 | 12.0 | 0.00 | 0.00 | 0.00 | 81 | 1013.4 |
| 20260506225016 | 62 | 23 | 6.0 | 13.0 | 0.00 | 0.00 | 0.00 | 81 | 1013.4 |
| 20260506224516 | 61 | 23 | 6.0 | 11.0 | 0.00 | 0.00 | 0.00 | 82 | 1013.4 |
| 20260506224036 | 61 | 23 | 7.0 | 14.0 | 0.00 | 0.00 | 0.00 | 81 | 1013.4 |
| 20260506223516 | 61 | 0 | 6.0 | 12.0 | 0.00 | 0.00 | 0.00 | 81 | 1013.1 |
| 20260506223016 | 61 | 23 | 6.0 | 10.0 | 0.00 | 0.00 | 0.00 | 82 | 1013.1 |
| 20260506222536 | 61 | 23 | 6.0 | 12.0 | 0.00 | 0.00 | 0.00 | 82 | 1013.1 |
| 20260506222016 | 61 | 23 | 6.0 | 13.0 | 0.00 | 0.00 | 0.00 | 82 | 1013.2 |
| 20260506221516 | 61 | 23 | 6.0 | 15.0 | 0.00 | 0.00 | 0.00 | 82 | 1013.2 |
| 20260506221016 | 61 | 0 | 5.0 | 10.0 | 0.00 | 0.00 | 0.00 | 82 | 1013.2 |
| 20260506220516 | 61 | 0 | 7.0 | 14.0 | 0.00 | 0.00 | 0.00 | 82 | 1013.3 |
| 20260506220016 | 61 | 23 | 6.0 | 13.0 | 0.00 | 0.00 | 0.00 | 81 | 1013.3 |
| 20260506215516 | 61 | 0 | 8.0 | 16.0 | 0.00 | 0.00 | 0.00 | 81 | 1013.0 |
| 20260506215016 | 62 | 23 | 7.0 | 13.0 | 0.00 | 0.00 | 0.00 | 81 | 1013.2 |
| 20260506214516 | 62 | 23 | 7.0 | 15.0 | 0.00 | 0.00 | 0.00 | 81 | 1013.0 |
| 20260506214016 | 61 | 23 | 8.0 | 16.0 | 0.00 | 0.00 | 0.00 | 81 | 1013.1 |
| 20260506213516 | 62 | 0 | 7.0 | 18.0 | 0.00 | 0.00 | 0.00 | 81 | 1013.2 |
| 20260506213016 | 62 | 23 | 6.0 | 13.0 | 0.00 | 0.00 | 0.00 | 81 | 1013.3 |
| 20260506212536 | 62 | 23 | 9.0 | 17.0 | 0.00 | 0.00 | 0.00 | 80 | 1013.3 |
| 20260506212016 | 62 | 0 | 8.0 | 15.0 | 0.00 | 0.00 | 0.00 | 80 | 1013.3 |
| 20260506211516 | 62 | 0 | 8.0 | 14.0 | 0.00 | 0.00 | 0.00 | 80 | 1013.4 |
| 20260506211016 | 62 | 338 | 7.0 | 13.0 | 0.00 | 0.00 | 0.00 | 81 | 1013.4 |
| 20260506210516 | 62 | 0 | 5.0 | 10.0 | 0.00 | 0.00 | 0.00 | 80 | 1013.4 |
| 20260506210016 | 62 | 0 | 7.0 | 13.0 | 0.00 | 0.00 | 0.00 | 80 | 1013.5 |
| 20260506205536 | 63 | 23 | 7.0 | 13.0 | 0.00 | 0.00 | 0.00 | 79 | 1013.5 |
| 20260506205016 | 63 | 0 | 5.0 | 9.0 | 0.00 | 0.00 | 0.00 | 79 | 1013.6 |
| 20260506204516 | 63 | 0 | 6.0 | 14.0 | 0.00 | 0.00 | 0.00 | 79 | 1013.5 |
| 20260506204016 | 63 | 0 | 5.0 | 10.0 | 0.00 | 0.00 | 0.00 | 79 | 1013.4 |
| 20260506203516 | 63 | 45 | 8.0 | 15.0 | 0.00 | 0.00 | 0.00 | 79 | 1013.6 |
| 20260506203016 | 63 | 0 | 8.0 | 16.0 | 0.00 | 0.00 | 0.00 | 79 | 1013.5 |
| 20260506202536 | 63 | 0 | 7.0 | 16.0 | 0.00 | 0.00 | 0.00 | 79 | 1013.5 |
| 20260506202015 | 64 | 0 | 7.0 | 15.0 | 0.00 | 0.00 | 0.00 | 78 | 1013.4 |
| 20260506201516 | 64 | 23 | 7.0 | 17.0 | 0.00 | 0.00 | 0.00 | 78 | 1013.4 |
| 20260506201015 | 65 | 23 | 8.0 | 20.0 | 0.00 | 0.00 | 0.00 | 76 | 1013.3 |
| 20260506200516 | 65 | 0 | 8.0 | 17.0 | 0.00 | 0.00 | 0.00 | 77 | 1013.3 |
| 20260506200016 | 65 | 23 | 8.0 | 15.0 | 0.00 | 0.00 | 0.00 | 77 | 1013.2 |
| 20260506195515 | 65 | 23 | 8.0 | 17.0 | 0.00 | 0.00 | 0.00 | 78 | 1013.2 |
| 20260506195016 | 65 | 0 | 8.0 | 16.0 | 0.00 | 0.00 | 0.00 | 77 | 1013.3 |
| 20260506194515 | 66 | 0 | 8.0 | 18.0 | 0.00 | 0.00 | 0.00 | 78 | 1013.2 |
| 20260506194016 | 66 | 338 | 6.0 | 12.0 | 0.00 | 0.00 | 0.00 | 77 | 1013.1 |
| 20260506193536 | 66 | 0 | 5.0 | 14.0 | 0.00 | 0.00 | 0.00 | 79 | 1013.2 |
| 20260506193015 | 66 | 338 | 6.0 | 14.0 | 0.00 | 0.00 | 0.00 | 80 | 1013.1 |
| 20260506192515 | 66 | 315 | 6.0 | 14.0 | 0.00 | 0.00 | 0.00 | 79 | 1013.3 |
| 20260506192016 | 67 | 338 | 7.0 | 13.0 | 0.00 | 0.00 | 0.00 | 80 | 1013.4 |
| 20260506191516 | 68 | 338 | 6.0 | 12.0 | 0.00 | 0.00 | 0.00 | 78 | 1013.3 |
| 20260506191016 | 68 | 338 | 5.0 | 13.0 | 0.00 | 0.00 | 0.00 | 78 | 1013.4 |
| 20260506190515 | 68 | 0 | 5.0 | 12.0 | 0.00 | 0.00 | 0.00 | 78 | 1013.3 |
| 20260506190016 | 68 | 338 | 6.0 | 14.0 | 0.00 | 0.00 | 0.00 | 77 | 1013.3 |